Dew Point Data


Current

Temp 38.0 F. Dew Point 36.0 F.


Dew Point Comfort Scale

dewpoints

Date, Time Temperature Dew Point
Fri Jan 15 01:08:04 2021 35.0 F. 27.0 F.
Fri Jan 15 02:08:05 2021 35.0 F. 27.0 F.
Fri Jan 15 03:08:05 2021 34.0 F. 27.0 F.
Fri Jan 15 04:08:04 2021 34.0 F. 26.1 F.
Fri Jan 15 05:08:06 2021 34.0 F. 24.1 F.
Fri Jan 15 06:08:04 2021 34.0 F. 23.0 F.
Fri Jan 15 07:08:04 2021 34.0 F. 23.0 F.
Fri Jan 15 08:08:04 2021 35.0 F. 21.9 F.
Fri Jan 15 09:08:04 2021 35.0 F. 21.9 F.
Fri Jan 15 10:08:04 2021 38.0 F. 23.0 F.
Fri Jan 15 11:08:05 2021 41.0 F. 23.0 F.
Fri Jan 15 12:08:05 2021 40.0 F. 21.9 F.
Fri Jan 15 13:08:05 2021 37.0 F. 25.0 F.
Fri Jan 15 14:08:05 2021 37.0 F. 25.0 F.
Fri Jan 15 15:08:05 2021 35.0 F. 28.0 F.
Fri Jan 15 16:08:04 2021 34.0 F. 30.0 F.
Fri Jan 15 17:08:05 2021 34.0 F. 30.0 F.
Fri Jan 15 18:08:04 2021 33.0 F. 30.0 F.
Fri Jan 15 19:08:04 2021 33.0 F. 30.0 F.
Fri Jan 15 20:08:04 2021 34.0 F. 30.0 F.
Fri Jan 15 21:08:04 2021 34.0 F. 30.0 F.
Fri Jan 15 22:08:04 2021 34.0 F. 30.0 F.
Fri Jan 15 23:08:05 2021 34.0 F. 30.0 F.
Sat Jan 16 00:08:05 2021 34.0 F. 30.0 F.
Sat Jan 16 01:08:04 2021 34.0 F. 30.0 F.
Sat Jan 16 02:08:04 2021 34.0 F. 30.0 F.
Sat Jan 16 03:08:04 2021 34.0 F. 28.9 F.
Sat Jan 16 04:08:05 2021 34.0 F. 30.0 F.
Sat Jan 16 05:08:05 2021 34.0 F. 28.9 F.
Sat Jan 16 06:08:05 2021 34.0 F. 28.9 F.
Sat Jan 16 07:08:05 2021 34.0 F. 28.0 F.
Sat Jan 16 08:08:04 2021 34.0 F. 28.0 F.
Sat Jan 16 09:08:04 2021 35.0 F. 28.9 F.
Sat Jan 16 10:08:04 2021 35.0 F. 28.9 F.
Sat Jan 16 11:08:05 2021 39.0 F. 30.9 F.
Sat Jan 16 12:08:05 2021 38.0 F. 30.0 F.
Sat Jan 16 13:08:04 2021 38.0 F. 30.0 F.
Sat Jan 16 14:08:04 2021 39.0 F. 28.9 F.
Sat Jan 16 15:08:05 2021 40.0 F. 30.0 F.
Sat Jan 16 16:08:05 2021 39.0 F. 30.0 F.
Sat Jan 16 17:08:04 2021 39.0 F. 30.0 F.
Sat Jan 16 18:08:05 2021 37.0 F. 30.0 F.
Sat Jan 16 19:08:04 2021 37.0 F. 30.0 F.
Sat Jan 16 20:08:05 2021 37.0 F. 30.0 F.
Sat Jan 16 21:08:04 2021 37.0 F. 30.0 F.
Sat Jan 16 22:08:04 2021 37.0 F. 30.0 F.
Sat Jan 16 23:08:05 2021 36.0 F. 28.9 F.
Sun Jan 17 00:08:04 2021 36.0 F. 28.0 F.
Sun Jan 17 01:08:04 2021 36.0 F. 28.0 F.
Sun Jan 17 02:08:05 2021 35.0 F. 28.9 F.
Sun Jan 17 03:08:04 2021 35.0 F. 28.9 F.
Sun Jan 17 04:08:05 2021 35.0 F. 28.9 F.
Sun Jan 17 05:08:05 2021 34.0 F. 28.9 F.
Sun Jan 17 06:08:04 2021 34.0 F. 28.9 F.
Sun Jan 17 07:08:05 2021 34.0 F. 28.9 F.
Sun Jan 17 08:08:05 2021 35.0 F. 28.0 F.
Sun Jan 17 09:08:04 2021 35.0 F. 28.9 F.
Sun Jan 17 10:08:04 2021 35.0 F. 28.0 F.
Sun Jan 17 11:08:05 2021 35.0 F. 28.0 F.
Sun Jan 17 12:08:05 2021 37.0 F. 27.0 F.
Sun Jan 17 13:08:05 2021 39.0 F. 24.1 F.
Sun Jan 17 14:08:05 2021 39.0 F. 24.1 F.
Sun Jan 17 15:08:05 2021 39.0 F. 24.1 F.
Sun Jan 17 16:08:05 2021 41.0 F. 23.0 F.
Sun Jan 17 17:08:05 2021 39.0 F. 26.1 F.
Sun Jan 17 18:08:05 2021 37.0 F. 28.0 F.
Sun Jan 17 19:08:05 2021 35.0 F. 30.0 F.
Sun Jan 17 20:08:05 2021 34.0 F. 30.0 F.
Sun Jan 17 21:08:05 2021 34.0 F. 30.0 F.
Sun Jan 17 22:08:04 2021 34.0 F. 30.0 F.
Sun Jan 17 23:08:04 2021 31.0 F. 28.9 F.
Mon Jan 18 00:08:04 2021 31.0 F. 28.9 F.
Mon Jan 18 01:08:05 2021 33.0 F. 30.0 F.
Mon Jan 18 02:08:04 2021 33.0 F. 30.0 F.
Mon Jan 18 03:08:04 2021 34.0 F. 30.0 F.
Mon Jan 18 04:08:05 2021 34.0 F. 30.0 F.
Mon Jan 18 05:08:04 2021 34.0 F. 28.0 F.
Mon Jan 18 06:08:04 2021 33.0 F. 27.0 F.
Mon Jan 18 07:08:05 2021 31.0 F. 27.0 F.
Mon Jan 18 08:08:04 2021 30.0 F. 26.1 F.
Mon Jan 18 09:08:05 2021 36.0 F. 28.0 F.
Mon Jan 18 10:08:05 2021 38.0 F. 28.9 F.
Mon Jan 18 11:08:05 2021 43.0 F. 28.0 F.
Mon Jan 18 12:08:04 2021 45.0 F. 25.0 F.
Mon Jan 18 13:08:04 2021 46.0 F. 26.1 F.
Mon Jan 18 14:08:05 2021 49.0 F. 26.1 F.
Mon Jan 18 15:08:05 2021 47.0 F. 26.1 F.
Mon Jan 18 16:08:04 2021 46.0 F. 28.0 F.
Mon Jan 18 17:08:05 2021 44.0 F. 28.9 F.
Mon Jan 18 18:08:04 2021 42.0 F. 28.9 F.
Mon Jan 18 19:08:04 2021 42.0 F. 28.9 F.
Mon Jan 18 20:08:04 2021 43.0 F. 28.0 F.
Mon Jan 18 21:08:05 2021 41.0 F. 28.9 F.
Mon Jan 18 22:08:05 2021 41.0 F. 28.9 F.
Mon Jan 18 23:08:04 2021 41.0 F. 28.9 F.
Tue Jan 19 00:08:05 2021 40.0 F. 30.0 F.
Tue Jan 19 01:08:04 2021 40.0 F. 30.9 F.
Tue Jan 19 02:08:04 2021 40.0 F. 30.9 F.
Tue Jan 19 03:08:04 2021 38.0 F. 32.0 F.
Tue Jan 19 04:08:05 2021 34.0 F. 30.9 F.
Tue Jan 19 05:08:05 2021 34.0 F. 30.9 F.
Tue Jan 19 06:08:04 2021 32.0 F. 30.0 F.
Tue Jan 19 07:08:04 2021 31.0 F. 28.9 F.
Tue Jan 19 08:08:05 2021 28.0 F. 28.0 F.
Tue Jan 19 09:08:04 2021 31.0 F. 30.0 F.
Tue Jan 19 10:08:04 2021 33.0 F. 32.0 F.
Tue Jan 19 11:08:05 2021 35.0 F. 32.0 F.
Tue Jan 19 12:08:05 2021 40.0 F. 30.9 F.
Tue Jan 19 13:08:05 2021 44.0 F. 30.0 F.
Tue Jan 19 14:08:05 2021 44.0 F. 30.0 F.
Tue Jan 19 15:08:05 2021 45.0 F. 28.9 F.
Tue Jan 19 16:08:05 2021 47.0 F. 28.9 F.
Tue Jan 19 17:08:04 2021 46.0 F. 28.9 F.
Tue Jan 19 18:08:05 2021 43.0 F. 30.0 F.
Tue Jan 19 19:08:04 2021 40.0 F. 28.9 F.
Tue Jan 19 20:08:05 2021 40.0 F. 28.9 F.
Tue Jan 19 21:08:04 2021 39.0 F. 28.0 F.
Tue Jan 19 22:08:05 2021 37.0 F. 28.0 F.
Tue Jan 19 23:08:04 2021 33.0 F. 26.1 F.
Wed Jan 20 00:08:04 2021 35.0 F. 26.1 F.
Wed Jan 20 01:08:04 2021 35.0 F. 26.1 F.
Wed Jan 20 02:08:04 2021 35.0 F. 26.1 F.
Wed Jan 20 03:08:05 2021 34.0 F. 25.0 F.
Wed Jan 20 04:08:04 2021 31.0 F. 21.9 F.
Wed Jan 20 05:08:04 2021 31.0 F. 21.9 F.
Wed Jan 20 06:08:04 2021 28.0 F. 19.9 F.
Wed Jan 20 07:08:04 2021 24.0 F. 18.0 F.
Wed Jan 20 08:08:05 2021 24.0 F. 18.0 F.
Wed Jan 20 09:08:05 2021 31.0 F. 19.9 F.
Wed Jan 20 10:08:05 2021 33.0 F. 19.9 F.
Wed Jan 20 11:08:05 2021 35.0 F. 18.0 F.
Wed Jan 20 12:08:05 2021 38.0 F. 19.9 F.
Wed Jan 20 13:08:04 2021 38.0 F. 19.9 F.
Wed Jan 20 14:08:05 2021 45.0 F. 19.9 F.
Wed Jan 20 15:08:04 2021 45.0 F. 19.9 F.
Wed Jan 20 16:08:05 2021 43.0 F. 23.0 F.
Wed Jan 20 17:08:04 2021 43.0 F. 24.1 F.
Wed Jan 20 18:08:05 2021 42.0 F. 25.0 F.
Wed Jan 20 19:08:05 2021 42.0 F. 25.0 F.
Wed Jan 20 20:08:05 2021 43.0 F. 26.1 F.
Wed Jan 20 21:08:04 2021 43.0 F. 27.0 F.
Wed Jan 20 22:08:04 2021 43.0 F. 27.0 F.
Wed Jan 20 23:08:04 2021 42.0 F. 30.9 F.
Thu Jan 21 00:08:05 2021 42.0 F. 32.0 F.
Thu Jan 21 01:08:05 2021 42.0 F. 34.0 F.
Thu Jan 21 02:08:04 2021 40.0 F. 35.1 F.
Thu Jan 21 03:08:05 2021 39.0 F. 35.1 F.
Thu Jan 21 04:08:04 2021 39.0 F. 35.1 F.
Thu Jan 21 05:08:04 2021 35.0 F. 33.1 F.
Thu Jan 21 06:08:05 2021 36.0 F. 33.1 F.
Thu Jan 21 07:08:04 2021 36.0 F. 33.1 F.
Thu Jan 21 08:08:04 2021 36.0 F. 34.0 F.
Thu Jan 21 09:08:05 2021 40.0 F. 35.1 F.
Thu Jan 21 10:08:04 2021 41.0 F. 35.1 F.
Thu Jan 21 11:08:05 2021 41.0 F. 35.1 F.
Thu Jan 21 12:08:04 2021 46.0 F. 33.1 F.
Thu Jan 21 13:08:05 2021 49.0 F. 33.1 F.
Thu Jan 21 14:08:04 2021 49.0 F. 33.1 F.
Thu Jan 21 15:08:05 2021 50.0 F. 32.0 F.
Thu Jan 21 16:08:04 2021 51.0 F. 28.9 F.
Thu Jan 21 17:08:05 2021 48.0 F. 28.0 F.
Thu Jan 21 18:08:04 2021 41.0 F. 28.0 F.
Thu Jan 21 19:08:05 2021 41.0 F. 28.0 F.
Thu Jan 21 20:08:05 2021 39.0 F. 27.0 F.
Thu Jan 21 21:08:05 2021 37.0 F. 27.0 F.
Thu Jan 21 22:08:04 2021 37.0 F. 27.0 F.
Thu Jan 21 23:08:04 2021 32.0 F. 27.0 F.
Fri Jan 22 00:08:05 2021 29.0 F. 24.1 F.
Fri Jan 22 01:08:04 2021 32.0 F. 28.0 F.
Fri Jan 22 02:08:04 2021 37.0 F. 24.1 F.
Fri Jan 22 03:08:05 2021 36.0 F. 24.1 F.
Fri Jan 22 04:08:04 2021 36.0 F. 24.1 F.
Fri Jan 22 05:08:05 2021 32.0 F. 21.9 F.
Fri Jan 22 06:08:04 2021 31.0 F. 21.9 F.
Fri Jan 22 07:08:05 2021 31.0 F. 21.0 F.
Fri Jan 22 08:08:04 2021 31.0 F. 21.9 F.
Fri Jan 22 09:08:05 2021 35.0 F. 21.9 F.
Fri Jan 22 10:08:05 2021 37.0 F. 21.9 F.
Fri Jan 22 11:08:04 2021 37.0 F. 21.9 F.
Fri Jan 22 12:08:04 2021 38.0 F. 21.0 F.
Fri Jan 22 13:08:04 2021 39.0 F. 18.0 F.
Fri Jan 22 14:08:05 2021 39.0 F. 14.0 F.
Fri Jan 22 15:08:04 2021 39.0 F. 12.0 F.
Fri Jan 22 16:08:05 2021 38.0 F. 10.9 F.
Fri Jan 22 17:08:05 2021 35.0 F. 12.9 F.
Fri Jan 22 18:08:04 2021 32.0 F. 12.0 F.
Fri Jan 22 19:08:05 2021 30.0 F. 12.9 F.
Fri Jan 22 20:08:04 2021 28.0 F. 12.9 F.
Fri Jan 22 21:08:06 2021 28.0 F. 12.9 F.
Fri Jan 22 22:08:04 2021 28.0 F. 14.0 F.
Fri Jan 22 23:08:04 2021 26.0 F. 12.9 F.
Sat Jan 23 00:08:05 2021 24.0 F. 12.9 F.
Sat Jan 23 01:08:04 2021 25.0 F. 12.9 F.
Sat Jan 23 02:08:05 2021 24.0 F. 12.0 F.
Sat Jan 23 03:08:04 2021 24.0 F. 12.0 F.
Sat Jan 23 04:08:05 2021 22.0 F. 12.0 F.
Sat Jan 23 05:08:04 2021 22.0 F. 12.0 F.
Sat Jan 23 06:08:04 2021 21.0 F. 12.0 F.
Sat Jan 23 07:08:06 2021 20.0 F. 12.0 F.
Sat Jan 23 08:08:04 2021 22.0 F. 12.9 F.
Sat Jan 23 09:08:05 2021 24.0 F. 12.9 F.
Sat Jan 23 10:08:04 2021 24.0 F. 12.9 F.
Sat Jan 23 11:08:05 2021 33.0 F. 12.0 F.
Sat Jan 23 12:08:04 2021 33.0 F. 12.0 F.
Sat Jan 23 13:08:04 2021 39.0 F. 10.9 F.
Sat Jan 23 14:08:04 2021 42.0 F. 12.0 F.
Sat Jan 23 15:08:05 2021 42.0 F. 10.9 F.
Sat Jan 23 16:08:06 2021 41.0 F. 12.9 F.
Sat Jan 23 17:08:05 2021 40.0 F. 15.1 F.
Sat Jan 23 18:08:04 2021 40.0 F. 15.1 F.
Sat Jan 23 19:08:05 2021 39.0 F. 16.0 F.
Sat Jan 23 20:08:05 2021 38.0 F. 17.1 F.
Sat Jan 23 21:08:05 2021 38.0 F. 17.1 F.
Sat Jan 23 22:08:05 2021 38.0 F. 17.1 F.
Sat Jan 23 23:08:04 2021 38.0 F. 17.1 F.
Sun Jan 24 00:08:05 2021 38.0 F. 19.0 F.
Sun Jan 24 01:08:05 2021 38.0 F. 19.0 F.
Sun Jan 24 02:08:05 2021 39.0 F. 17.1 F.
Sun Jan 24 03:08:05 2021 37.0 F. 24.1 F.
Sun Jan 24 04:08:04 2021 36.0 F. 26.1 F.
Sun Jan 24 05:08:05 2021 36.0 F. 28.0 F.
Sun Jan 24 06:08:05 2021 35.0 F. 30.0 F.
Sun Jan 24 07:08:04 2021 35.0 F. 30.9 F.
Sun Jan 24 08:08:05 2021 35.0 F. 32.0 F.
Sun Jan 24 09:08:05 2021 37.0 F. 34.0 F.
Sun Jan 24 10:08:04 2021 37.0 F. 34.0 F.
Sun Jan 24 11:08:05 2021 40.0 F. 37.0 F.
Sun Jan 24 12:08:04 2021 42.0 F. 37.9 F.
Sun Jan 24 13:08:04 2021 42.0 F. 37.9 F.
Sun Jan 24 14:08:05 2021 44.0 F. 37.9 F.
Sun Jan 24 15:08:05 2021 44.0 F. 37.9 F.
Sun Jan 24 16:08:05 2021 43.0 F. 37.9 F.
Sun Jan 24 17:08:05 2021 42.0 F. 37.0 F.
Sun Jan 24 18:08:05 2021 41.0 F. 37.0 F.
Sun Jan 24 19:08:04 2021 41.0 F. 36.0 F.
Sun Jan 24 20:08:05 2021 41.0 F. 36.0 F.
Sun Jan 24 21:08:04 2021 41.0 F. 36.0 F.
Sun Jan 24 22:08:05 2021 41.0 F. 37.0 F.
Sun Jan 24 23:08:05 2021 40.0 F. 37.0 F.
Mon Jan 25 00:08:05 2021 40.0 F. 37.0 F.
Mon Jan 25 01:08:04 2021 39.0 F. 36.0 F.
Mon Jan 25 02:08:05 2021 39.0 F. 36.0 F.
Mon Jan 25 03:08:05 2021 38.0 F. 36.0 F.
Mon Jan 25 04:08:05 2021 38.0 F. 36.0 F.
Mon Jan 25 05:08:04 2021 38.0 F. 36.0 F.
Mon Jan 25 06:08:05 2021 37.0 F. 35.1 F.
Mon Jan 25 07:08:05 2021 37.0 F. 35.1 F.
Mon Jan 25 08:08:05 2021 38.0 F. 35.1 F.
Mon Jan 25 09:08:05 2021 38.0 F. 36.0 F.
Mon Jan 25 10:08:05 2021 37.0 F. 35.1 F.
Mon Jan 25 11:08:05 2021 37.0 F. 35.1 F.
Mon Jan 25 12:08:04 2021 37.0 F. 34.0 F.
Mon Jan 25 13:08:04 2021 38.0 F. 35.1 F.
Mon Jan 25 14:08:05 2021 38.0 F. 35.1 F.
Mon Jan 25 15:08:05 2021 39.0 F. 37.0 F.
Mon Jan 25 16:08:04 2021 40.0 F. 37.0 F.
Mon Jan 25 17:08:04 2021 40.0 F. 37.9 F.
Mon Jan 25 18:08:04 2021 40.0 F. 37.9 F.
Mon Jan 25 19:08:05 2021 39.0 F. 37.9 F.
Mon Jan 25 20:08:05 2021 39.0 F. 37.9 F.
Mon Jan 25 21:08:04 2021 39.0 F. 37.0 F.
Mon Jan 25 22:08:05 2021 39.0 F. 37.0 F.
Mon Jan 25 23:08:05 2021 39.0 F. 37.0 F.
Tue Jan 26 00:08:05 2021 39.0 F. 37.9 F.
Tue Jan 26 01:08:05 2021 39.0 F. 37.9 F.
Tue Jan 26 02:08:05 2021 40.0 F. 37.9 F.
Tue Jan 26 03:08:05 2021 40.0 F. 39.0 F.
Tue Jan 26 04:08:05 2021 41.0 F. 39.9 F.
Tue Jan 26 05:08:05 2021 38.0 F. 36.0 F.